Theta_e
321 321 323 325 332 330 333 339 340 338 342 345 346 343 345 343 341 341 341 340 339 339 338 337 339 341 342 343 344 343 342 342 344 344 345 346 347 345 345 346 347 346 345 345
317 320 321 322 324 327 332 335 336 337 341 342 343 345 342 342 342 340 340 340 341 340 339 338 339 341 342 343 343 343 342 342 344 344 345 346 346 344 345 347 346 345 346 346
318 320 321 323 324 334 333 335 335 337 339 339 339 339 340 342 343 342 340 342 341 342 341 340 340 341 342 343 343 344 344 343 343 344 344 346 347 345 346 344 346 344 347 347
318 318 321 320 320 326 323 327 333 338 339 339 336 338 335 342 344 344 342 340 340 340 341 341 342 341 341 342 342 343 343 344 343 344 345 346 346 346 347 346 345 343 343 347
319 321 320 320 320 323 320 330 334 336 336 337 337 335 331 339 343 344 341 340 340 341 341 341 342 342 342 341 342 342 342 343 343 344 345 346 347 346 348 347 346 345 343 345
318 319 319 319 320 325 320 319 316 316 323 332 331 328 320 326 339 341 342 340 340 341 341 342 342 343 343 342 342 341 341 341 343 345 345 346 346 347 347 344 345 346 345 343
318 321 318 320 323 320 316 315 316 319 319 323 319 321 320 322 325 331 337 342 341 342 342 342 342 343 342 343 342 342 341 341 342 346 346 346 346 347 347 345 345 348 345 341
320 322 324 324 325 325 320 314 315 319 317 317 314 318 322 326 327 338 341 343 342 341 342 342 343 343 343 343 343 343 342 342 342 346 347 347 347 347 348 346 345 345 346 347
323 324 323 325 323 320 320 316 313 311 310 315 313 317 322 323 325 331 340 342 343 342 343 343 343 343 343 343 343 343 343 343 343 346 347 348 348 348 348 346 347 346 347 347
322 326 324 323 323 323 322 316 316 311 317 319 318 319 322 323 326 325 329 339 341 342 343 343 344 343 343 343 343 344 343 343 345 346 347 347 348 348 347 347 347 345 348 348
321 321 323 322 323 323 320 320 312 311 310 314 315 324 321 327 328 327 333 337 337 339 341 342 343 343 343 343 343 343 343 343 345 346 346 347 347 348 348 347 344 346 345 349
321 318 321 322 320 317 321 322 316 321 324 310 315 317 332 338 339 338 345 349 347 341 340 341 343 343 343 343 343 343 343 344 345 346 346 347 347 348 348 347 345 344 345 348
321 317 318 316 318 320 320 318 317 314 314 320 321 323 325 340 341 342 339 346 350 344 342 340 342 343 343 344 345 344 343 344 345 346 346 347 347 348 348 348 347 346 346 345
320 314 318 319 319 319 321 319 319 317 319 320 319 321 321 341 341 338 340 342 351 351 345 342 344 344 344 344 344 345 344 344 345 345 346 347 347 347 348 348 349 350 346 345
314 319 318 317 317 319 319 319 319 321 320 322 322 320 331 342 340 338 338 334 334 335 346 352 347 345 345 345 345 345 345 345 343 343 346 345 347 348 348 348 349 350 350 347
309 314 316 316 316 316 318 317 316 317 320 318 319 319 334 341 339 337 338 335 335 334 334 334 338 350 350 345 348 351 348 348 347 347 346 343 344 349 349 348 349 350 351 351
312 309 309 313 312 314 316 316 316 320 323 322 326 327 339 340 338 336 336 335 334 334 338 340 340 342 342 340 337 345 346 354 353 350 350 349 347 347 348 348 350 351 351 351
307 307 307 311 313 316 314 315 318 319 338 335 335 337 338 339 340 339 337 335 334 338 341 338 336 335 334 334 336 339 343 347 354 357 353 353 352 351 350 342 338 337 346 352
307 308 310 313 312 314 318 323 327 334 328 333 336 336 338 335 337 338 335 338 341 343 343 342 341 338 336 334 332 331 331 338 350 351 357 358 355 354 354 352 339 341 346 349
306 306 312 310 315 316 315 322 324 327 333 333 334 332 335 336 340 336 339 345 346 346 347 346 344 340 335 330 326 325 330 333 343 350 353 357 357 356 356 356 355 354 350 351
317 314 312 312 315 315 316 322 325 332 329 331 336 335 335 334 337 337 340 340 343 344 343 339 335 335 332 328 327 326 329 332 332 347 354 358 359 357 358 358 358 358 354 350
319 319 320 315 317 319 322 322 327 324 327 330 329 328 331 334 335 335 342 344 343 342 335 335 332 329 326 326 326 327 327 331 332 331 339 353 358 360 356 358 356 353 353 349
319 317 318 319 320 320 323 321 323 322 322 321 322 322 322 326 333 334 338 340 333 330 329 329 327 326 325 324 325 323 323 324 326 331 331 331 350 358 357 357 355 345 339 337
318 317 319 319 317 318 322 322 320 320 320 320 320 319 319 321 322 326 328 329 329 325 324 324 323 322 321 321 320 320 321 324 327 329 331 331 330 347 358 356 345 342 337 338
317 318 316 315 316 317 320 320 321 321 321 321 321 320 320 320 319 320 320 320 321 321 321 322 322 321 321 321 320 320 320 322 330 330 334 334 336 333 344 350 345 346 345 342
317 316 316 320 320 318 319 320 320 321 321 321 319 319 319 318 318 318 318 318 318 318 318 318 319 319 319 320 320 320 321 327 332 333 330 332 336 339 344 346 347 348 348 347
Wind_Speed
2 3 6 9 7 3 1 2 7 9 6 3 8 6 9 19 18 19 23 29 35 36 33 32 34 32 32 31 28 25 25 25 23 21 20 20 18 16 15 11 9 8 5 5
6 3 7 3 3 3 3 4 7 10 6 4 2 12 4 12 20 29 30 32 38 34 31 35 37 37 35 32 31 29 27 26 26 24 21 21 17 15 13 14 12 12 9 7
6 5 1 3 1 2 4 5 5 8 2 4 3 8 4 3 15 21 30 40 40 41 36 34 38 39 38 37 35 32 29 27 28 27 25 24 21 17 17 17 14 16 12 9
3 4 3 2 4 6 4 6 9 2 2 4 3 6 7 2 8 9 27 33 38 41 40 36 35 38 40 39 36 35 33 30 29 28 29 27 22 19 16 15 14 14 15 12
6 3 4 4 7 8 10 2 0 3 2 4 1 1 8 4 6 10 15 32 36 42 44 40 39 36 37 38 38 36 34 33 30 29 28 26 24 18 15 16 16 18 15 14
6 3 3 5 3 7 1 5 6 5 3 1 4 5 6 4 6 7 6 26 34 40 41 40 38 35 34 35 36 36 35 31 30 27 28 27 23 19 16 15 15 12 13 12
5 3 5 1 4 3 6 6 3 3 4 6 3 5 10 5 9 8 12 23 34 39 39 39 39 38 37 36 37 34 34 32 32 26 27 25 25 22 18 15 14 16 15 14
3 6 5 7 1 4 1 6 6 6 4 5 4 6 5 4 15 14 7 14 29 36 37 38 40 40 38 38 36 36 35 32 34 30 26 25 24 24 21 17 14 14 14 14
2 3 5 1 3 3 2 1 3 7 3 3 4 7 9 6 9 15 7 8 23 32 35 36 38 41 40 38 38 37 37 32 33 32 29 27 25 26 24 21 18 15 14 13
4 1 2 6 4 5 5 2 2 4 4 1 5 5 5 14 20 12 8 3 6 19 28 32 34 38 41 39 37 34 36 33 30 32 32 29 26 26 26 24 22 20 18 17
3 3 6 1 3 2 6 4 6 5 3 5 1 6 3 6 9 10 7 6 3 7 17 27 32 33 35 37 38 37 34 35 33 33 32 32 29 27 27 27 25 22 21 21
3 4 2 6 4 2 2 2 4 5 2 1 2 6 1 2 7 11 11 14 9 3 6 11 22 26 28 32 36 37 39 35 32 31 33 33 31 30 30 30 29 27 25 24
3 2 3 9 6 5 5 3 3 4 3 2 4 5 1 9 8 16 15 16 14 9 6 9 15 21 27 28 28 31 36 36 34 31 36 35 36 34 33 33 32 31 30 28
4 3 5 6 7 4 4 3 2 4 3 2 6 7 6 9 7 12 18 18 21 21 16 9 11 15 20 22 25 27 30 34 33 31 33 35 37 38 37 34 35 34 34 34
4 1 4 5 6 3 4 6 3 4 4 5 5 6 0 5 5 6 11 19 22 22 19 15 10 8 11 13 18 22 24 25 30 34 38 32 36 37 40 42 40 39 38 39
2 2 4 4 4 6 5 9 7 7 3 7 5 6 3 1 2 2 4 6 10 13 14 15 11 12 8 7 4 14 21 24 27 32 41 40 25 36 42 44 44 42 44 45
3 5 3 4 3 4 5 8 6 3 4 4 4 4 4 2 4 4 3 4 6 8 10 12 12 12 11 5 11 19 6 3 16 30 36 39 49 51 50 41 43 43 46 47
7 6 3 3 2 1 7 3 3 5 2 4 4 4 8 6 6 10 10 10 5 3 9 8 11 12 13 15 15 17 18 11 10 16 21 32 41 50 51 45 41 47 52 52
3 5 3 4 4 5 3 1 2 4 6 5 4 2 6 6 2 6 8 6 4 1 2 5 7 10 14 18 22 24 26 28 25 22 19 29 39 43 45 50 47 49 51 57
6 4 4 2 4 6 6 3 3 2 4 8 9 7 7 5 2 4 9 8 6 3 2 4 6 10 12 17 22 25 27 28 27 25 23 14 26 34 40 44 51 54 67 61
2 2 4 2 3 6 6 8 2 4 6 1 4 3 6 5 14 7 12 11 9 8 9 8 8 11 13 15 19 22 24 25 27 25 26 16 20 26 29 38 42 44 41 36
4 3 4 2 2 5 3 3 1 4 3 1 3 5 8 15 19 18 16 16 14 13 12 11 10 10 11 11 14 17 20 21 23 25 25 21 15 24 22 27 31 27 23 14
3 5 3 7 5 5 3 2 0 2 1 2 3 5 7 10 14 16 17 15 14 12 11 10 10 10 10 10 11 14 15 19 21 23 23 24 17 14 18 21 19 15 21 17
3 2 1 2 3 6 7 3 7 5 4 6 9 11 11 12 10 12 15 16 16 14 13 14 15 15 15 14 13 14 15 18 20 21 22 24 20 13 14 15 18 19 17 17
5 1 3 6 12 12 21 23 22 11 13 14 14 14 15 16 17 18 19 18 18 17 16 16 16 18 20 20 21 20 19 18 17 18 20 21 23 17 13 16 19 24 26 27
8 7 4 7 23 14 22 19 15 22 16 17 18 17 18 22 23 22 22 20 19 19 18 18 17 19 21 23 24 23 20 18 17 15 18 19 20 19 16 15 14 10 13 20
Wind_Direction
77 99 226 216 197 191 322 223 272 276 207 227 233 267 200 181 188 189 181 194 199 213 214 215 221 222 225 229 225 224 224 227 224 227 229 227 233 242 243 233 244 240 244 257
24 229 240 203 171 175 190 260 255 283 202 191 303 254 217 186 210 193 185 195 207 212 212 215 219 224 225 224 226 226 229 229 229 231 234 232 237 248 240 237 236 243 242 228
156 238 104 202 243 212 226 208 238 212 28 223 10 307 281 211 212 202 197 206 206 208 209 212 221 224 226 231 230 228 227 232 233 234 233 232 234 241 236 227 237 230 224 226
229 284 247 173 225 161 282 199 251 245 57 239 75 283 314 326 251 210 197 198 206 210 214 214 219 227 227 229 234 234 232 231 233 234 232 231 234 237 245 234 226 221 230 224
252 243 232 232 222 162 236 123 101 177 141 20 214 37 267 346 295 252 206 201 204 215 215 216 221 226 231 233 235 236 235 229 228 230 228 230 234 241 254 243 229 242 225 228
235 268 216 223 276 182 3 94 57 52 80 63 243 142 287 261 251 289 204 204 200 212 218 221 225 227 230 235 236 234 232 224 221 224 224 227 230 231 236 228 225 228 210 211
329 287 305 299 337 26 73 59 348 356 9 215 36 72 246 260 287 251 265 209 201 211 216 218 221 226 230 231 233 228 227 226 219 222 222 228 229 228 232 232 234 225 219 216
57 345 1 341 142 233 106 153 156 185 201 259 154 232 245 226 333 351 336 222 204 204 216 221 223 226 228 230 231 231 226 224 222 222 220 225 228 227 229 230 227 223 229 226
92 292 319 328 318 115 314 29 179 101 12 56 297 297 312 317 359 356 0 183 197 203 211 221 224 227 226 228 230 229 226 225 225 225 223 223 225 225 225 226 226 224 230 228
202 64 322 292 21 16 84 167 21 0 129 171 307 295 254 334 322 330 321 248 210 214 217 224 225 227 228 227 231 229 229 229 228 227 227 227 228 226 226 226 227 223 222 223
120 101 288 8 53 246 357 14 52 116 92 151 169 266 223 289 305 322 354 63 194 221 218 223 229 230 232 228 228 227 223 232 230 230 230 231 231 231 230 230 231 228 224 222
32 127 247 237 292 298 346 59 115 108 247 99 143 270 255 357 340 355 6 45 58 94 205 217 221 224 225 227 229 226 221 228 231 234 236 235 235 235 234 234 234 232 228 225
165 17 15 352 354 357 43 337 98 96 82 198 131 262 302 28 27 23 15 45 55 70 151 179 203 217 221 222 228 226 223 225 231 239 241 243 242 240 240 239 237 235 233 229
104 111 160 180 212 182 309 311 76 106 90 207 230 287 335 338 4 7 39 59 65 67 72 124 177 210 220 225 228 228 223 222 227 241 247 246 246 248 248 242 240 239 236 234
92 223 189 247 230 218 236 240 274 233 201 168 250 234 354 292 320 333 78 70 61 57 66 80 104 172 210 231 244 245 239 230 219 241 245 264 262 254 254 252 250 243 238 236
32 241 177 271 270 226 264 254 228 238 211 263 276 278 173 247 282 279 112 61 48 33 46 64 75 78 132 131 24 278 243 237 228 232 239 235 257 257 256 252 252 251 248 242
161 142 110 264 329 326 298 233 195 189 185 200 190 238 184 206 246 243 272 308 336 33 58 59 54 52 69 65 166 267 304 304 248 240 246 249 249 251 253 253 250 252 250 248
153 129 134 225 4 235 241 286 232 219 232 233 241 177 188 186 222 264 267 280 289 91 84 64 55 43 38 39 23 4 348 319 287 272 274 260 249 248 249 234 243 260 250 245
174 136 136 164 182 286 297 77 101 168 259 198 243 200 167 160 268 259 233 222 218 230 69 60 40 26 15 7 4 2 356 346 329 321 301 259 250 250 253 234 231 249 254 247
77 72 121 120 158 200 236 277 249 161 261 214 208 204 191 164 124 256 210 210 211 218 296 347 355 349 345 346 347 349 352 345 336 325 321 311 252 250 252 253 250 254 252 251
359 24 177 167 231 292 261 297 42 145 239 167 194 233 220 194 214 282 233 233 237 248 263 277 291 301 317 334 337 339 342 337 344 332 324 321 291 272 268 261 256 251 238 228
197 157 212 122 180 263 337 338 248 234 301 245 337 327 277 260 266 283 238 228 240 250 252 256 273 298 317 331 337 339 335 329 338 343 341 320 296 283 278 252 252 249 247 259
275 189 196 176 218 243 280 161 344 325 300 344 326 310 312 311 284 263 246 245 241 244 255 260 273 284 303 322 331 331 331 330 333 333 329 336 315 300 283 266 241 243 254 232
300 166 193 9 266 239 215 267 254 249 267 302 308 311 315 291 288 278 269 265 268 275 277 277 280 288 294 298 304 308 311 317 321 325 325 324 316 308 291 254 248 265 258 248
214 131 215 261 276 266 269 276 269 268 279 295 286 281 281 284 286 275 270 267 264 264 266 270 274 281 289 296 298 304 306 302 304 312 320 322 320 307 305 284 272 257 268 263
193 208 188 248 267 257 276 287 266 285 267 295 269 275 285 284 277 270 265 265 261 258 261 266 274 285 289 293 299 302 306 296 289 294 308 313 317 313 302 304 295 271 265 256